| time (UTC) | temp F | wind direction | speed MPH | gust MPH | rain 1hr in | rain 24hr in | rain mn in | humidity % | barometer mb |
| 20260506134938 | 70 | 189 | 3.0 | 6.0 | 0.00 | 0.30 | 0.30 | 40 | 1007.1 |
| 20260506134439 | 70 | 199 | 3.0 | 6.0 | 0.00 | 0.30 | 0.30 | 41 | 1007.1 |
| 20260506133938 | 71 | 0 | 1.0 | 9.0 | 0.00 | 0.30 | 0.30 | 40 | 1007.2 |
| 20260506133439 | 70 | 65 | 6.0 | 9.0 | 0.00 | 0.30 | 0.30 | 42 | 1007.2 |
| 20260506132939 | 71 | 117 | 1.0 | 7.0 | 0.00 | 0.30 | 0.30 | 43 | 1007.2 |
| 20260506132708 | 70 | 87 | 4.0 | 7.0 | 0.00 | 0.30 | 0.30 | 42 | 1007.2 |
| 20260506131939 | 70 | 149 | 2.0 | 6.0 | 0.00 | 0.30 | 0.30 | 42 | 1007.2 |
| 20260506131705 | 69 | 114 | 2.0 | 6.0 | 0.00 | 0.30 | 0.30 | 45 | 1007.4 |
| 20260506130938 | 67 | 255 | 1.0 | 5.0 | 0.00 | 0.30 | 0.30 | 45 | 1007.3 |
| 20260506130438 | 69 | 234 | 2.0 | 5.0 | 0.00 | 0.30 | 0.30 | 43 | 1007.4 |
| 20260506125937 | 69 | 61 | 3.0 | 5.0 | 0.00 | 0.30 | 0.30 | 42 | 1007.3 |
| 20260506125438 | 70 | 0 | 2.0 | 5.0 | 0.00 | 0.30 | 0.30 | 41 | 1007.3 |
| 20260506124937 | 70 | 0 | 3.0 | 4.0 | 0.00 | 0.30 | 0.30 | 44 | 1007.4 |
| 20260506124438 | 68 | 0 | 0.0 | 6.0 | 0.00 | 0.30 | 0.30 | 44 | 1007.4 |
| 20260506124420 | 69 | 0 | 3.0 | 7.0 | 0.00 | 0.30 | 0.30 | 44 | 1007.4 |
| 20260506123438 | 69 | 0 | 4.0 | 7.0 | 0.00 | 0.30 | 0.30 | 46 | 1007.4 |
| 20260506122937 | 69 | 0 | 4.0 | 7.0 | 0.00 | 0.30 | 0.30 | 45 | 1007.3 |
| 20260506122437 | 68 | 0 | 2.0 | 9.0 | 0.00 | 0.30 | 0.30 | 45 | 1007.4 |
| 20260506121937 | 67 | 0 | 3.0 | 9.0 | 0.00 | 0.30 | 0.30 | 46 | 1007.3 |
| 20260506121436 | 68 | 0 | 4.0 | 7.0 | 0.00 | 0.30 | 0.30 | 46 | 1007.3 |
| 20260506121417 | 67 | 0 | 2.0 | 6.0 | 0.00 | 0.30 | 0.30 | 47 | 1007.4 |
| 20260506120437 | 68 | 0 | 3.0 | 7.0 | 0.00 | 0.30 | 0.30 | 46 | 1007.3 |
| 20260506115936 | 67 | 0 | 4.0 | 9.0 | 0.00 | 0.30 | 0.30 | 48 | 1007.6 |
| 20260506115437 | 67 | 0 | 3.0 | 9.0 | 0.00 | 0.30 | 0.30 | 47 | 1007.6 |
| 20260506115430 | 67 | 0 | 4.0 | 7.0 | 0.00 | 0.30 | 0.30 | 48 | 1007.4 |
| 20260506114436 | 65 | 0 | 3.0 | 6.0 | 0.00 | 0.30 | 0.30 | 47 | 1007.4 |
| 20260506113937 | 67 | 0 | 3.0 | 6.0 | 0.00 | 0.30 | 0.30 | 47 | 1007.6 |
| 20260506113436 | 67 | 0 | 2.0 | 5.0 | 0.00 | 0.30 | 0.30 | 48 | 1007.6 |
| 20260506112936 | 65 | 0 | 2.0 | 9.0 | 0.00 | 0.30 | 0.30 | 47 | 1007.6 |
| 20260506112700 | 65 | 0 | 4.0 | 9.0 | 0.00 | 0.30 | 0.30 | 48 | 1007.6 |
| 20260506111935 | 65 | 0 | 4.0 | 7.0 | 0.00 | 0.30 | 0.30 | 48 | 1007.7 |
| 20260506111435 | 65 | 0 | 6.0 | 7.0 | 0.00 | 0.30 | 0.30 | 50 | 1007.7 |
| 20260506110936 | 65 | 0 | 2.0 | 4.0 | 0.00 | 0.30 | 0.30 | 51 | 1007.7 |
| 20260506110435 | 65 | 0 | 2.0 | 5.0 | 0.00 | 0.30 | 0.30 | 49 | 1007.8 |
| 20260506110421 | 65 | 0 | 2.0 | 6.0 | 0.00 | 0.30 | 0.30 | 50 | 1007.8 |
| 20260506105701 | 65 | 0 | 3.0 | 6.0 | 0.00 | 0.30 | 0.30 | 50 | 1008.0 |
| 20260506104935 | 63 | 0 | 3.0 | 5.0 | 0.00 | 0.30 | 0.30 | 50 | 1008.0 |
| 20260506104435 | 64 | 0 | 3.0 | 5.0 | 0.00 | 0.30 | 0.30 | 49 | 1008.0 |
| 20260506103935 | 64 | 0 | 2.0 | 4.0 | 0.00 | 0.30 | 0.30 | 50 | 1008.0 |
| 20260506103434 | 63 | 0 | 1.0 | 6.0 | 0.00 | 0.30 | 0.30 | 51 | 1008.1 |
| 20260506102935 | 63 | 0 | 2.0 | 6.0 | 0.00 | 0.30 | 0.30 | 50 | 1008.1 |
| 20260506102434 | 63 | 0 | 4.0 | 6.0 | 0.00 | 0.30 | 0.30 | 50 | 1008.0 |
| 20260506102146 | 64 | 0 | 3.0 | 6.0 | 0.00 | 0.30 | 0.30 | 52 | 1008.1 |
| 20260506102132 | 64 | 0 | 1.0 | 6.0 | 0.00 | 0.30 | 0.30 | 50 | 1008.1 |
| 20260506101153 | 62 | 0 | 2.0 | 6.0 | 0.00 | 0.30 | 0.30 | 51 | 1008.2 |
| 20260506100434 | 62 | 0 | 4.0 | 7.0 | 0.00 | 0.30 | 0.30 | 51 | 1008.2 |
| 20260506095934 | 62 | 0 | 5.0 | 7.0 | 0.00 | 0.30 | 0.30 | 52 | 1008.2 |
| 20260506095433 | 62 | 0 | 2.0 | 7.0 | 0.00 | 0.30 | 0.30 | 51 | 1008.2 |
| 20260506094933 | 62 | 0 | 4.0 | 7.0 | 0.00 | 0.30 | 0.30 | 51 | 1008.2 |
| 20260506094433 | 62 | 0 | 4.0 | 7.0 | 0.00 | 0.31 | 0.30 | 53 | 1008.2 |
| 20260506093933 | 61 | 0 | 4.0 | 7.0 | 0.00 | 0.31 | 0.30 | 53 | 1008.3 |
| 20260506093434 | 61 | 0 | 4.0 | 6.0 | 0.00 | 0.31 | 0.30 | 52 | 1008.4 |
| 20260506092933 | 60 | 0 | 4.0 | 9.0 | 0.00 | 0.31 | 0.30 | 52 | 1008.4 |
| 20260506092434 | 60 | 0 | 4.0 | 9.0 | 0.00 | 0.31 | 0.30 | 53 | 1008.4 |
| 20260506091933 | 60 | 0 | 5.0 | 9.0 | 0.00 | 0.31 | 0.30 | 52 | 1008.5 |
| 20260506091652 | 60 | 0 | 4.0 | 7.0 | 0.00 | 0.31 | 0.30 | 54 | 1008.5 |
| 20260506090934 | 59 | 0 | 4.0 | 11.0 | 0.00 | 0.31 | 0.30 | 55 | 1008.6 |
| 20260506090434 | 58 | 0 | 6.0 | 11.0 | 0.00 | 0.32 | 0.30 | 58 | 1008.7 |
| 20260506090151 | 58 | 0 | 6.0 | 10.0 | 0.00 | 0.32 | 0.30 | 63 | 1008.6 |
| 20260506085434 | 57 | 0 | 6.0 | 10.0 | 0.00 | 0.33 | 0.30 | 66 | 1008.6 |
| 20260506084934 | 57 | 0 | 4.0 | 6.0 | 0.00 | 0.33 | 0.30 | 68 | 1008.6 |
| 20260506084434 | 56 | 0 | 4.0 | 6.0 | 0.00 | 0.33 | 0.30 | 67 | 1008.6 |
| 20260506083934 | 56 | 0 | 4.0 | 6.0 | 0.00 | 0.33 | 0.30 | 68 | 1008.7 |
| 20260506083433 | 55 | 0 | 4.0 | 6.0 | 0.00 | 0.34 | 0.30 | 68 | 1008.7 |
| 20260506082933 | 55 | 0 | 4.0 | 6.0 | 0.00 | 0.34 | 0.30 | 67 | 1008.7 |
| 20260506082433 | 55 | 0 | 4.0 | 6.0 | 0.00 | 0.34 | 0.30 | 68 | 1008.8 |
| 20260506082155 | 55 | 0 | 4.0 | 6.0 | 0.00 | 0.35 | 0.30 | 68 | 1008.7 |
| 20260506081433 | 55 | 0 | 1.0 | 4.0 | 0.00 | 0.35 | 0.30 | 68 | 1008.7 |
| 20260506080933 | 55 | 0 | 2.0 | 3.0 | 0.00 | 0.35 | 0.30 | 68 | 1008.8 |
| 20260506080433 | 55 | 0 | 2.0 | 3.0 | 0.00 | 0.35 | 0.30 | 68 | 1008.8 |
| 20260506080158 | 55 | 0 | 1.0 | 2.0 | 0.00 | 0.35 | 0.30 | 68 | 1008.7 |
| 20260506073432 | 55 | 0 | 0.0 | 3.0 | 0.00 | 0.35 | 0.30 | 68 | 1008.7 |
| 20260506072932 | 55 | 0 | 0.0 | 3.0 | 0.00 | 0.35 | 0.30 | 68 | 1008.7 |
| 20260506072432 | 55 | 0 | 1.0 | 3.0 | 0.00 | 0.35 | 0.30 | 68 | 1008.7 |
| 20260506071932 | 55 | 0 | 1.0 | 2.0 | 0.00 | 0.35 | 0.30 | 68 | 1008.6 |
| 20260506071433 | 55 | 0 | 1.0 | 1.0 | 0.00 | 0.35 | 0.30 | 68 | 1008.7 |
| 20260506070932 | 55 | 0 | 0.0 | 0.0 | 0.00 | 0.35 | 0.30 | 68 | 1008.7 |
| 20260506070432 | 55 | 0 | 0.0 | 0.0 | 0.00 | 0.35 | 0.30 | 68 | 1008.7 |
| 20260506062430 | 55 | 0 | 0.0 | 0.0 | 0.03 | 0.35 | 0.30 | 68 | 1009.1 |
| 20260506061931 | 55 | 0 | 0.0 | 0.0 | 0.06 | 0.35 | 0.30 | 68 | 1009.0 |
| 20260506061430 | 55 | 0 | 0.0 | 0.0 | 0.10 | 0.35 | 0.30 | 68 | 1009.1 |
| 20260506060930 | 54 | 0 | 0.0 | 2.0 | 0.15 | 0.35 | 0.30 | 68 | 1009.1 |
| 20260506060430 | 54 | 0 | 0.0 | 2.0 | 0.18 | 0.35 | 0.30 | 67 | 1009.1 |
| 20260506050929 | 54 | 0 | 1.0 | 2.0 | 0.09 | 0.16 | 0.13 | 66 | 1009.3 |
| 20260506050428 | 54 | 0 | 1.0 | 2.0 | 0.06 | 0.16 | 0.12 | 66 | 1009.4 |
| 20260506044929 | 54 | 0 | 0.0 | 1.0 | 0.06 | 0.10 | 0.10 | 66 | 1009.3 |
| 20260506044428 | 54 | 0 | 0.0 | 2.0 | 0.06 | 0.11 | 0.10 | 65 | 1009.4 |
| 20260506044155 | 54 | 0 | 0.0 | 3.0 | 0.06 | 0.11 | 0.10 | 65 | 1009.5 |
| 20260506043428 | 54 | 0 | 1.0 | 3.0 | 0.06 | 0.12 | 0.09 | 65 | 1009.5 |
| 20260506042928 | 54 | 0 | 2.0 | 3.0 | 0.06 | 0.13 | 0.09 | 65 | 1009.6 |
| 20260506042650 | 54 | 0 | 0.0 | 2.0 | 0.06 | 0.13 | 0.07 | 65 | 1009.6 |
| 20260506042144 | 54 | 0 | 1.0 | 2.0 | 0.05 | 0.14 | 0.07 | 65 | 1009.5 |
| 20260506041428 | 54 | 0 | 0.0 | 3.0 | 0.05 | 0.17 | 0.07 | 65 | 1009.5 |
| 20260506040927 | 55 | 0 | 0.0 | 3.0 | 0.05 | 0.17 | 0.06 | 64 | 1009.6 |
| 20260506040428 | 55 | 0 | 2.0 | 3.0 | 0.04 | 0.19 | 0.06 | 64 | 1009.5 |
| 20260506040151 | 55 | 0 | 2.0 | 3.0 | 0.04 | 0.17 | 0.06 | 64 | 1009.4 |
| 20260506035427 | 55 | 0 | 1.0 | 2.0 | 0.04 | 0.17 | 0.06 | 64 | 1009.6 |
| 20260506034927 | 55 | 0 | 0.0 | 1.0 | 0.03 | 0.19 | 0.05 | 64 | 1009.8 |
| 20260506034427 | 55 | 0 | 0.0 | 2.0 | 0.02 | 0.20 | 0.04 | 64 | 1009.7 |
| 20260506033927 | 55 | 0 | 2.0 | 2.0 | 0.02 | 0.22 | 0.04 | 63 | 1009.7 |
| 20260506033427 | 55 | 0 | 0.0 | 3.0 | 0.02 | 0.24 | 0.03 | 63 | 1009.8 |
| 20260506032926 | 55 | 0 | 1.0 | 3.0 | 0.01 | 0.25 | 0.02 | 63 | 1009.8 |
| 20260506032426 | 55 | 0 | 1.0 | 3.0 | 0.01 | 0.27 | 0.02 | 63 | 1009.8 |
| 20260506031927 | 55 | 0 | 1.0 | 4.0 | 0.01 | 0.28 | 0.02 | 63 | 1009.9 |
| 20260506031427 | 55 | 0 | 3.0 | 4.0 | 0.01 | 0.30 | 0.02 | 63 | 1009.9 |
| 20260506030925 | 55 | 0 | 0.0 | 0.0 | 0.00 | 0.30 | 0.02 | 62 | 1010.1 |
| 20260506030426 | 55 | 0 | 0.0 | 0.0 | 0.00 | 0.31 | 0.02 | 62 | 1010.2 |
| 20260506030411 | 55 | 0 | 0.0 | 0.0 | 0.00 | 0.31 | 0.02 | 62 | 1010.3 |
| 20260506025426 | 55 | 0 | 0.0 | 0.0 | 0.00 | 0.32 | 0.02 | 62 | 1010.3 |
| 20260506024926 | 55 | 0 | 0.0 | 0.0 | 0.00 | 0.32 | 0.02 | 62 | 1010.4 |
| 20260506024426 | 55 | 0 | 0.0 | 0.0 | 0.00 | 0.32 | 0.02 | 62 | 1010.5 |
| 20260506024139 | 55 | 0 | 0.0 | 0.0 | 0.00 | 0.32 | 0.02 | 61 | 1010.5 |
| 20260506024122 | 55 | 0 | 0.0 | 0.0 | 0.00 | 0.32 | 0.02 | 61 | 1010.6 |
| 20260506022925 | 55 | 0 | 0.0 | 0.0 | 0.00 | 0.32 | 0.02 | 61 | 1010.5 |
| 20260506022425 | 55 | 0 | 0.0 | 0.0 | 0.00 | 0.33 | 0.02 | 61 | 1010.6 |
| 20260506021925 | 55 | 0 | 0.0 | 0.0 | 0.00 | 0.33 | 0.02 | 61 | 1010.7 |
| 20260506021425 | 55 | 0 | 0.0 | 0.0 | 0.00 | 0.33 | 0.02 | 61 | 1010.6 |
| 20260506020925 | 55 | 0 | 0.0 | 0.0 | 0.00 | 0.33 | 0.02 | 61 | 1010.5 |
| 20260506020425 | 55 | 0 | 0.0 | 0.0 | 0.00 | 0.33 | 0.02 | 61 | 1010.5 |
| 20260506015925 | 55 | 0 | 0.0 | 0.0 | 0.00 | 0.33 | 0.02 | 60 | 1010.8 |
| 20260506015425 | 55 | 0 | 0.0 | 0.0 | 0.00 | 0.33 | 0.02 | 60 | 1010.8 |
| 20260506014923 | 55 | 0 | 0.0 | 0.0 | 0.00 | 0.33 | 0.02 | 60 | 1010.8 |
| 20260506014647 | 55 | 0 | 0.0 | 0.0 | 0.00 | 0.33 | 0.02 | 60 | 1010.8 |
| 20260506013924 | 55 | 0 | 0.0 | 0.0 | 0.00 | 0.33 | 0.02 | 60 | 1010.7 |
| 20260506013424 | 55 | 0 | 0.0 | 0.0 | 0.00 | 0.33 | 0.02 | 60 | 1010.7 |
| 20260506012922 | 55 | 0 | 0.0 | 0.0 | 0.01 | 0.33 | 0.02 | 60 | 1010.8 |
| 20260506012423 | 55 | 0 | 0.0 | 0.0 | 0.01 | 0.33 | 0.02 | 60 | 1010.9 |
| 20260506011923 | 55 | 0 | 0.0 | 0.0 | 0.01 | 0.33 | 0.02 | 59 | 1010.9 |
| 20260506011422 | 55 | 0 | 0.0 | 0.0 | 0.02 | 0.33 | 0.02 | 59 | 1010.9 |
| 20260506010922 | 55 | 0 | 0.0 | 0.0 | 0.02 | 0.33 | 0.02 | 59 | 1011.0 |
| 20260506010423 | 55 | 0 | 0.0 | 0.0 | 0.02 | 0.33 | 0.02 | 59 | 1011.0 |
| 20260506005922 | 55 | 0 | 0.0 | 0.0 | 0.02 | 0.31 | 0.02 | 59 | 1011.2 |
| 20260506005423 | 55 | 0 | 0.0 | 0.0 | 0.02 | 0.31 | 0.02 | 59 | 1011.1 |
| 20260506004924 | 55 | 0 | 0.0 | 0.0 | 0.02 | 0.31 | 0.02 | 59 | 1011.5 |
| 20260506004639 | 55 | 0 | 0.0 | 0.0 | 0.02 | 0.31 | 0.02 | 59 | 1011.6 |
| 20260506003923 | 55 | 0 | 0.0 | 0.0 | 0.02 | 0.31 | 0.02 | 59 | 1011.7 |
| 20260506003423 | 55 | 0 | 0.0 | 0.0 | 0.02 | 0.31 | 0.02 | 59 | 1011.8 |
| 20260506003404 | 55 | 0 | 0.0 | 0.0 | 0.01 | 0.32 | 0.01 | 59 | 1011.9 |
| 20260506002422 | 55 | 0 | 0.0 | 0.0 | 0.01 | 0.32 | 0.01 | 59 | 1012.0 |
| 20260506001923 | 55 | 0 | 0.0 | 0.0 | 0.01 | 0.32 | 0.01 | 59 | 1012.1 |
| 20260506001423 | 55 | 0 | 0.0 | 0.0 | 0.00 | 0.32 | 0.00 | 59 | 1012.3 |
| 20260506000922 | 55 | 0 | 0.0 | 0.0 | 0.00 | 0.34 | 0.00 | 59 | 1012.4 |
| 20260506000423 | 55 | 0 | 0.0 | 0.0 | 0.00 | 0.35 | 0.00 | 59 | 1012.5 |
| 20260505235922 | 56 | 0 | 0.0 | 0.0 | 0.00 | 0.35 | 0.00 | 59 | 1012.4 |
| 20260505235422 | 56 | 0 | 0.0 | 0.0 | 0.00 | 0.36 | 0.00 | 59 | 1012.4 |
| 20260505234921 | 56 | 0 | 0.0 | 0.0 | 0.00 | 0.37 | 0.00 | 59 | 1012.5 |
| 20260505234422 | 56 | 0 | 0.0 | 0.0 | 0.00 | 0.37 | 0.00 | 58 | 1012.5 |
| 20260505234141 | 56 | 0 | 0.0 | 0.0 | 0.00 | 0.37 | 0.00 | 58 | 1012.5 |
| 20260505233643 | 56 | 0 | 0.0 | 0.0 | 0.00 | 0.37 | 0.00 | 58 | 1012.6 |
| 20260505232922 | 56 | 0 | 0.0 | 0.0 | 0.00 | 0.37 | 0.00 | 58 | 1012.7 |
| 20260505232422 | 56 | 0 | 0.0 | 0.0 | 0.00 | 0.37 | 0.00 | 58 | 1012.7 |
| 20260505231921 | 56 | 0 | 0.0 | 0.0 | 0.00 | 0.37 | 0.00 | 58 | 1012.6 |
| 20260505231418 | 56 | 0 | 0.0 | 0.0 | 0.00 | 0.37 | 0.00 | 58 | 1012.7 |
| 20260505231137 | 56 | 0 | 0.0 | 0.0 | 0.00 | 0.37 | 0.00 | 58 | 1012.7 |
| 20260505230636 | 56 | 0 | 0.0 | 0.0 | 0.00 | 0.37 | 0.00 | 58 | 1012.7 |
| 20260505225916 | 56 | 0 | 0.0 | 0.0 | 0.00 | 0.37 | 0.00 | 58 | 1012.7 |
| 20260505225405 | 56 | 0 | 0.0 | 0.0 | 0.00 | 0.37 | 0.00 | 58 | 1012.7 |
| 20260505224906 | 56 | 0 | 0.0 | 0.0 | 0.00 | 0.37 | 0.00 | 58 | 1012.7 |
| 20260505224406 | 56 | 0 | 0.0 | 0.0 | 0.00 | 0.37 | 0.00 | 58 | 1012.9 |
| 20260505223905 | 56 | 0 | 0.0 | 0.0 | 0.00 | 0.37 | 0.00 | 58 | 1012.9 |
| 20260505223406 | 56 | 0 | 0.0 | 0.0 | 0.00 | 0.37 | 0.00 | 58 | 1013.0 |
| 20260505222906 | 56 | 0 | 0.0 | 1.0 | 0.00 | 0.37 | 0.00 | 58 | 1013.0 |
| 20260505222629 | 56 | 0 | 0.0 | 1.0 | 0.00 | 0.37 | 0.00 | 58 | 1013.0 |
| 20260505221906 | 56 | 0 | 0.0 | 1.0 | 0.00 | 0.37 | 0.00 | 58 | 1013.0 |
| 20260505221406 | 56 | 0 | 0.0 | 3.0 | 0.00 | 0.37 | 0.00 | 57 | 1013.1 |
| 20260505220905 | 56 | 0 | 0.0 | 3.0 | 0.00 | 0.37 | 0.00 | 57 | 1012.9 |
| 20260505220405 | 56 | 0 | 0.0 | 0.0 | 0.00 | 0.37 | 0.00 | 57 | 1012.8 |
| 20260505220128 | 56 | 0 | 0.0 | 0.0 | 0.00 | 0.37 | 0.37 | 57 | 1012.9 |
| 20260505215405 | 56 | 0 | 0.0 | 0.0 | 0.00 | 0.37 | 0.37 | 57 | 1013.1 |
| 20260505214906 | 56 | 0 | 0.0 | 0.0 | 0.00 | 0.37 | 0.37 | 57 | 1013.0 |
| 20260505214626 | 56 | 0 | 0.0 | 0.0 | 0.00 | 0.37 | 0.37 | 57 | 1012.9 |
| 20260505213905 | 56 | 0 | 0.0 | 0.0 | 0.00 | 0.37 | 0.37 | 57 | 1013.0 |
| 20260505213406 | 56 | 0 | 0.0 | 0.0 | 0.00 | 0.37 | 0.37 | 57 | 1013.2 |
| 20260505212905 | 56 | 0 | 0.0 | 0.0 | 0.00 | 0.37 | 0.37 | 57 | 1013.3 |
| 20260505212405 | 56 | 0 | 0.0 | 0.0 | 0.00 | 0.37 | 0.37 | 58 | 1013.5 |
| 20260505211905 | 56 | 0 | 0.0 | 0.0 | 0.00 | 0.37 | 0.37 | 58 | 1013.5 |
| 20260505211405 | 56 | 0 | 0.0 | 0.0 | 0.00 | 0.37 | 0.37 | 58 | 1013.5 |
| 20260505210905 | 56 | 0 | 0.0 | 0.0 | 0.00 | 0.37 | 0.37 | 58 | 1013.5 |
| 20260505210405 | 55 | 0 | 0.0 | 0.0 | 0.00 | 0.37 | 0.37 | 58 | 1013.4 |
| 20260505210128 | 55 | 0 | 0.0 | 0.0 | 0.00 | 0.37 | 0.37 | 58 | 1013.3 |
| 20260505205406 | 55 | 0 | 0.0 | 0.0 | 0.00 | 0.37 | 0.37 | 58 | 1013.4 |
| 20260505204906 | 55 | 0 | 0.0 | 0.0 | 0.00 | 0.37 | 0.37 | 58 | 1013.4 |
| 20260505204405 | 55 | 0 | 0.0 | 0.0 | 0.00 | 0.37 | 0.37 | 58 | 1013.5 |
| 20260505203907 | 55 | 0 | 0.0 | 0.0 | 0.00 | 0.37 | 0.37 | 58 | 1013.5 |
| 20260505203635 | 55 | 0 | 0.0 | 0.0 | 0.00 | 0.37 | 0.37 | 58 | 1013.4 |
| 20260505202906 | 55 | 0 | 0.0 | 0.0 | 0.00 | 0.37 | 0.37 | 58 | 1013.5 |
| 20260505202405 | 55 | 0 | 0.0 | 0.0 | 0.00 | 0.37 | 0.37 | 58 | 1013.5 |
| 20260505201904 | 56 | 0 | 0.0 | 1.0 | 0.00 | 0.37 | 0.37 | 58 | 1013.5 |
| 20260505201623 | 56 | 0 | 0.0 | 1.0 | 0.00 | 0.37 | 0.37 | 58 | 1013.4 |
| 20260505200904 | 56 | 0 | 0.0 | 2.0 | 0.00 | 0.37 | 0.37 | 58 | 1013.4 |
| 20260505200404 | 56 | 0 | 1.0 | 2.0 | 0.00 | 0.37 | 0.37 | 58 | 1013.4 |
| 20260505195905 | 56 | 0 | 0.0 | 1.0 | 0.00 | 0.37 | 0.37 | 58 | 1013.3 |
| 20260505195404 | 56 | 0 | 0.0 | 1.0 | 0.00 | 0.37 | 0.37 | 58 | 1013.3 |
| 20260505194905 | 56 | 0 | 0.0 | 3.0 | 0.00 | 0.37 | 0.37 | 58 | 1013.4 |
| 20260505194402 | 56 | 0 | 1.0 | 3.0 | 0.00 | 0.37 | 0.37 | 58 | 1013.3 |
| 20260505193904 | 56 | 0 | 1.0 | 3.0 | 0.00 | 0.37 | 0.37 | 58 | 1013.5 |
| 20260505193405 | 56 | 0 | 0.0 | 0.0 | 0.00 | 0.37 | 0.37 | 58 | 1013.4 |
| 20260505193129 | 56 | 0 | 0.0 | 2.0 | 0.00 | 0.37 | 0.37 | 57 | 1013.4 |
| 20260505192405 | 56 | 0 | 1.0 | 2.0 | 0.00 | 0.37 | 0.37 | 57 | 1013.3 |
| 20260505191904 | 56 | 0 | 0.0 | 1.0 | 0.00 | 0.37 | 0.37 | 57 | 1013.3 |
| 20260505191404 | 56 | 0 | 0.0 | 1.0 | 0.00 | 0.37 | 0.37 | 57 | 1013.2 |
| 20260505190905 | 56 | 0 | 0.0 | 1.0 | 0.00 | 0.37 | 0.37 | 57 | 1013.1 |
| 20260505190405 | 56 | 0 | 1.0 | 1.0 | 0.00 | 0.37 | 0.37 | 57 | 1013.1 |
| 20260505185904 | 56 | 0 | 0.0 | 0.0 | 0.00 | 0.37 | 0.37 | 57 | 1013.1 |
| 20260505185404 | 56 | 0 | 0.0 | 0.0 | 0.00 | 0.37 | 0.37 | 57 | 1013.1 |
| 20260505184905 | 56 | 0 | 0.0 | 0.0 | 0.00 | 0.37 | 0.37 | 57 | 1013.0 |
| 20260505184404 | 57 | 0 | 0.0 | 0.0 | 0.00 | 0.37 | 0.37 | 57 | 1013.0 |
| 20260505183904 | 57 | 0 | 0.0 | 0.0 | 0.00 | 0.37 | 0.37 | 57 | 1013.1 |
| 20260505183625 | 57 | 0 | 0.0 | 0.0 | 0.00 | 0.37 | 0.37 | 57 | 1013.1 |
| 20260505182904 | 57 | 0 | 0.0 | 2.0 | 0.00 | 0.37 | 0.37 | 57 | 1013.1 |
| 20260505182405 | 57 | 0 | 0.0 | 2.0 | 0.00 | 0.37 | 0.37 | 57 | 1013.0 |
| 20260505181905 | 57 | 0 | 0.0 | 1.0 | 0.00 | 0.37 | 0.37 | 56 | 1013.0 |
| 20260505181404 | 57 | 0 | 0.0 | 0.0 | 0.00 | 0.37 | 0.37 | 56 | 1013.0 |
| 20260505180904 | 57 | 0 | 0.0 | 0.0 | 0.00 | 0.37 | 0.37 | 56 | 1013.0 |
| 20260505180405 | 57 | 0 | 0.0 | 0.0 | 0.00 | 0.38 | 0.37 | 56 | 1013.0 |
| 20260505175904 | 58 | 0 | 0.0 | 1.0 | 0.00 | 0.38 | 0.37 | 56 | 1013.1 |
| 20260505175404 | 58 | 0 | 0.0 | 1.0 | 0.00 | 0.38 | 0.37 | 56 | 1013.0 |
| 20260505174905 | 58 | 0 | 0.0 | 1.0 | 0.00 | 0.38 | 0.37 | 56 | 1013.0 |
| 20260505174404 | 58 | 0 | 0.0 | 1.0 | 0.00 | 0.38 | 0.37 | 56 | 1013.1 |
| 20260505173904 | 58 | 0 | 0.0 | 1.0 | 0.00 | 0.39 | 0.37 | 56 | 1013.1 |
| 20260505173405 | 58 | 0 | 0.0 | 2.0 | 0.00 | 0.39 | 0.37 | 56 | 1013.1 |
| 20260505172904 | 58 | 0 | 1.0 | 2.0 | 0.00 | 0.39 | 0.37 | 56 | 1013.1 |
| 20260505172405 | 58 | 0 | 0.0 | 3.0 | 0.00 | 0.39 | 0.37 | 56 | 1013.0 |
| 20260505171905 | 58 | 0 | 0.0 | 3.0 | 0.00 | 0.39 | 0.37 | 56 | 1013.1 |
| 20260505171404 | 58 | 0 | 1.0 | 3.0 | 0.00 | 0.40 | 0.37 | 55 | 1013.1 |
| 20260505171124 | 58 | 0 | 1.0 | 3.0 | 0.00 | 0.40 | 0.37 | 55 | 1013.1 |
| 20260505170404 | 58 | 0 | 1.0 | 3.0 | 0.00 | 0.40 | 0.37 | 55 | 1013.2 |
| 20260505170134 | 58 | 0 | 2.0 | 3.0 | 0.00 | 0.40 | 0.37 | 54 | 1013.1 |
| 20260505165404 | 58 | 0 | 2.0 | 3.0 | 0.00 | 0.40 | 0.37 | 54 | 1013.2 |
| 20260505164904 | 58 | 0 | 2.0 | 4.0 | 0.00 | 0.40 | 0.37 | 54 | 1013.2 |
| 20260505164405 | 58 | 0 | 3.0 | 4.0 | 0.00 | 0.40 | 0.37 | 55 | 1013.3 |
| 20260505163904 | 58 | 0 | 2.0 | 5.0 | 0.00 | 0.40 | 0.37 | 54 | 1013.2 |
| 20260505163405 | 59 | 0 | 4.0 | 5.0 | 0.00 | 0.40 | 0.37 | 54 | 1013.2 |
| 20260505162905 | 59 | 0 | 2.0 | 4.0 | 0.00 | 0.40 | 0.37 | 54 | 1013.3 |
| 20260505162404 | 59 | 0 | 2.0 | 5.0 | 0.00 | 0.40 | 0.37 | 54 | 1013.4 |
| 20260505161905 | 59 | 0 | 3.0 | 6.0 | 0.00 | 0.40 | 0.37 | 54 | 1013.4 |
| 20260505161405 | 59 | 0 | 1.0 | 6.0 | 0.00 | 0.40 | 0.37 | 53 | 1013.3 |
| 20260505160905 | 59 | 0 | 4.0 | 5.0 | 0.00 | 0.40 | 0.37 | 53 | 1013.4 |
| 20260505160404 | 59 | 0 | 3.0 | 5.0 | 0.00 | 0.40 | 0.37 | 53 | 1013.2 |
| 20260505152905 | 59 | 0 | 2.0 | 6.0 | 0.00 | 0.40 | 0.37 | 52 | 1013.4 |
| 20260505152404 | 60 | 0 | 2.0 | 6.0 | 0.00 | 0.40 | 0.37 | 53 | 1013.3 |
| 20260505152126 | 60 | 0 | 1.0 | 4.0 | 0.00 | 0.40 | 0.37 | 53 | 1013.3 |
| 20260505151404 | 59 | 0 | 0.0 | 4.0 | 0.00 | 0.40 | 0.37 | 53 | 1013.3 |
| 20260505150905 | 59 | 0 | 1.0 | 4.0 | 0.00 | 0.40 | 0.37 | 52 | 1013.3 |
| 20260505150404 | 59 | 0 | 4.0 | 4.0 | 0.00 | 0.40 | 0.37 | 53 | 1013.4 |
| 20260505140404 | 57 | 0 | 1.0 | 3.0 | 0.00 | 0.40 | 0.37 | 57 | 1013.8 |